This is the latest recevied weather packets stored in our database for station/object WC4PEM-4. If no packets are shown the sender has not sent any weather packets the latest 10 day(s).
| Time | Temp. | Humidity | Pressure | Rain* | Wind** | Luminosity | Snow |
|---|---|---|---|---|---|---|---|
| 1788446773 | 28.89° C | 81% | 1015.2 hPa | 0 mm | - | - | - |
| 1788446629 | 28.89° C | 82% | 1015.4 hPa | 0 mm | - | - | - |
| 1788446473 | 28.89° C | 82% | 1015.4 hPa | 0 mm | - | - | - |
| 1788446173 | 28.89° C | 83% | 1015.3 hPa | 0 mm | - | - | - |
| 1788445873 | 28.89° C | 82% | 1015.3 hPa | 0 mm | - | - | - |
| 1788445573 | 28.33° C | 83% | 1015.1 hPa | 0 mm | - | - | - |
| 1788445273 | 28.33° C | 84% | 1015.1 hPa | 0 mm | - | - | - |
| 1788444973 | 28.33° C | 82% | 1015.1 hPa | 0 mm | - | - | - |
| 1788444673 | 28.89° C | 82% | 1015.1 hPa | 0 mm | - | - | - |
| 1788444373 | 28.89° C | 81% | 1015.1 hPa | 0 mm | - | - | - |
| 1788444259 | 28.89° C | 84% | 1015 hPa | 0 mm | - | - | - |
| 1788444092 | 28.89° C | 84% | 1015 hPa | 0 mm | - | - | - |
| 1788443894 | 28.89° C | 83% | 1015.1 hPa | 0 mm | - | - | - |
| 1788443773 | 28.89° C | 83% | 1015.1 hPa | 0 mm | - | - | - |
| 1788443473 | 28.33° C | 84% | 1015.1 hPa | 0 mm | - | - | - |
| 1788443173 | 28.33° C | 85% | 1014.9 hPa | 0 mm | - | - | - |
| 1788442873 | 27.78° C | 87% | 1015 hPa | 0 mm | - | - | - |
| 1788442576 | 28.33° C | 86% | 1014.9 hPa | 0 mm | - | - | - |
| 1788442273 | 27.78° C | 87% | 1014.7 hPa | 0 mm | - | - | - |
| 1788441973 | 27.78° C | 87% | 1014.7 hPa | 0.25 mm | - | - | - |
| 1788441791 | 27.78° C | 89% | 1014.8 hPa | 0.25 mm | - | - | - |
| 1788441673 | 27.78° C | 89% | 1014.8 hPa | 0.25 mm | - | - | - |
| 1788441373 | 27.78° C | 91% | 1014.8 hPa | 0.25 mm | - | - | - |
| 1788441073 | 27.22° C | 92% | 1014.9 hPa | 0.25 mm | - | - | - |
| 1788440906 | 27.22° C | 91% | 1014.9 hPa | 0.25 mm | - | - | - |
* Rain latest hour (hover to see other rain measurements)
** Current wind speed in m/s (hover to see current wind gust speed)